TimeMDT,TemperatureF,Dew PointF,Humidity,Sea Level PressureIn,VisibilityMPH,Wind Direction,Wind SpeedMPH,Gust SpeedMPH,PrecipitationIn,Events,Conditions,WindDirDegrees,DateUTC
12:53 AM,54.0,48.9,83,29.73,10.0,NW,9.2,-,N/A,,Scattered Clouds,320,2013-05-17 06:53:00
1:53 AM,54.0,50.0,86,29.73,10.0,Calm,Calm,-,N/A,,Mostly Cloudy,0,2013-05-17 07:53:00
2:53 AM,54.0,48.9,83,29.74,10.0,North,3.5,-,N/A,,Overcast,360,2013-05-17 08:53:00
3:53 AM,53.1,50.0,89,29.72,10.0,NNW,4.6,-,N/A,,Mostly Cloudy,340,2013-05-17 09:53:00
4:53 AM,53.1,50.0,89,29.74,10.0,Calm,Calm,-,N/A,,Clear,0,2013-05-17 10:53:00
6:53 AM,53.1,50.0,89,29.75,10.0,Calm,Calm,-,N/A,,Mostly Cloudy,0,2013-05-17 12:53:00
7:53 AM,57.0,51.1,81,29.75,10.0,Calm,Calm,-,N/A,,Clear,0,2013-05-17 13:53:00
8:53 AM,63.0,50.0,63,29.73,10.0,SSE,3.5,-,N/A,,Clear,160,2013-05-17 14:53:00
9:53 AM,68.0,48.9,50,29.71,10.0,ESE,8.1,-,N/A,,Clear,120,2013-05-17 15:53:00
10:53 AM,71.1,48.9,45,29.70,10.0,SSE,10.4,-,N/A,,Clear,150,2013-05-17 16:53:00
11:53 AM,72.0,48.9,44,29.70,10.0,SE,9.2,-,N/A,,Clear,140,2013-05-17 17:53:00
1:53 PM,79.0,37.0,22,29.65,10.0,SSW,6.9,-,N/A,,Partly Cloudy,200,2013-05-17 19:53:00
2:53 PM,81.0,37.0,21,29.63,10.0,WNW,8.1,-,N/A,,Clear,300,2013-05-17 20:53:00
3:53 PM,82.9,37.0,19,29.61,10.0,NW,9.2,-,N/A,,Clear,310,2013-05-17 21:53:00
4:53 PM,81.0,30.0,16,29.60,10.0,WNW,10.4,-,N/A,,Clear,300,2013-05-17 22:53:00
5:53 PM,80.1,28.9,15,29.59,10.0,SW,13.8,-,N/A,,Clear,230,2013-05-17 23:53:00
6:53 PM,79.0,28.0,15,29.60,10.0,West,8.1,-,N/A,,Clear,260,2013-05-18 00:53:00
7:53 PM,75.0,19.0,12,29.62,10.0,WSW,13.8,-,N/A,,Clear,250,2013-05-18 01:53:00
8:53 PM,71.1,21.0,15,29.61,10.0,WSW,12.7,-,N/A,,Clear,250,2013-05-18 02:53:00
9:24 PM,64.4,44.6,49,29.82,10.0,NNW,15.0,-,N/A,,Clear,340,2013-05-18 03:24:00
9:32 PM,62.6,48.2,59,29.83,10.0,NNW,17.3,26.5,N/A,,Clear,340,2013-05-18 03:32:00
9:53 PM,60.1,48.9,67,29.71,10.0,NNW,16.1,23.0,N/A,,Clear,340,2013-05-18 03:53:00
10:53 PM,57.0,48.9,74,29.72,10.0,West,16.1,-,N/A,,Clear,280,2013-05-18 04:53:00
11:01 PM,57.2,48.2,72,29.88,10.0,WNW,11.5,20.7,N/A,,Clear,300,2013-05-18 05:01:00
11:53 PM,55.0,48.9,80,29.74,10.0,WNW,12.7,-,N/A,,Clear,290,2013-05-18 05:53:00